owner,sensor,date,latitude,longitude,vertical_datum,sea_water_temperature,qcFlag 
COMPS,ioos:station:USF.COMPS:C10:1,2015-11-01T00:05:00Z,27.1690,-82.9260,-1.0,26.941,2 
COMPS,ioos:station:USF.COMPS:C10:1,2015-11-01T00:35:00Z,27.1690,-82.9260,-1.0,26.932,2 
COMPS,ioos:station:USF.COMPS:C10:1,2015-11-01T04:05:00Z,27.1690,-82.9260,-1.0,26.919,2 
COMPS,ioos:station:USF.COMPS:C10:1,2015-11-01T04:35:00Z,27.1690,-82.9260,-1.0,26.914,2 
COMPS,ioos:station:USF.COMPS:C10:1,2015-11-01T05:05:00Z,27.1690,-82.9260,-1.0,26.91,2 
COMPS,ioos:station:USF.COMPS:C10:1,2015-11-01T05:35:00Z,27.1690,-82.9260,-1.0,26.91,2 
COMPS,ioos:station:USF.COMPS:C10:1,2015-11-01T06:05:00Z,27.1690,-82.9260,-1.0,26.903,2 
COMPS,ioos:station:USF.COMPS:C10:1,2015-11-01T06:35:00Z,27.1690,-82.9260,-1.0,26.893,2 
COMPS,ioos:station:USF.COMPS:C10:1,2015-11-01T07:05:00Z,27.1690,-82.9260,-1.0,26.903,2 
COMPS,ioos:station:USF.COMPS:C10:1,2015-11-01T07:35:00Z,27.1690,-82.9260,-1.0,26.903,2 
COMPS,ioos:station:USF.COMPS:C10:1,2015-11-01T08:05:00Z,27.1690,-82.9260,-1.0,26.894,2 
COMPS,ioos:station:USF.COMPS:C10:1,2015-11-01T08:35:00Z,27.1690,-82.9260,-1.0,26.888,2 
COMPS,ioos:station:USF.COMPS:C10:1,2015-11-01T09:05:00Z,27.1690,-82.9260,-1.0,26.882,2 
COMPS,ioos:station:USF.COMPS:C10:1,2015-11-01T09:35:00Z,27.1690,-82.9260,-1.0,26.879,2 
COMPS,ioos:station:USF.COMPS:C10:1,2015-11-01T10:05:00Z,27.1690,-82.9260,-1.0,26.87,2 
COMPS,ioos:station:USF.COMPS:C10:1,2015-11-01T10:35:00Z,27.1690,-82.9260,-1.0,26.865,2 
COMPS,ioos:station:USF.COMPS:C10:1,2015-11-01T11:05:00Z,27.1690,-82.9260,-1.0,26.864,2 
COMPS,ioos:station:USF.COMPS:C10:1,2015-11-01T11:35:00Z,27.1690,-82.9260,-1.0,26.848,2 
COMPS,ioos:station:USF.COMPS:C10:1,2015-11-01T12:05:00Z,27.1690,-82.9260,-1.0,26.837,2 
COMPS,ioos:station:USF.COMPS:C10:1,2015-11-01T12:35:00Z,27.1690,-82.9260,-1.0,26.82,2 
COMPS,ioos:station:USF.COMPS:C10:1,2015-11-01T13:05:00Z,27.1690,-82.9260,-1.0,26.821,2 
COMPS,ioos:station:USF.COMPS:C10:1,2015-11-01T13:35:00Z,27.1690,-82.9260,-1.0,26.802,2 
COMPS,ioos:station:USF.COMPS:C10:1,2015-11-01T14:05:00Z,27.1690,-82.9260,-1.0,26.801,2 
COMPS,ioos:station:USF.COMPS:C10:1,2015-11-01T14:35:00Z,27.1690,-82.9260,-1.0,26.799,2 
COMPS,ioos:station:USF.COMPS:C10:1,2015-11-01T16:05:00Z,27.1690,-82.9260,-1.0,26.859,2 
COMPS,ioos:station:USF.COMPS:C10:1,2015-11-01T16:35:00Z,27.1690,-82.9260,-1.0,26.899,2 
COMPS,ioos:station:USF.COMPS:C10:1,2015-11-01T17:05:00Z,27.1690,-82.9260,-1.0,26.928,2 
COMPS,ioos:station:USF.COMPS:C10:1,2015-11-01T17:35:00Z,27.1690,-82.9260,-1.0,26.942,2 
COMPS,ioos:station:USF.COMPS:C10:1,2015-11-01T18:05:00Z,27.1690,-82.9260,-1.0,26.984,2 
COMPS,ioos:station:USF.COMPS:C10:1,2015-11-01T18:35:00Z,27.1690,-82.9260,-1.0,27.019,2 
COMPS,ioos:station:USF.COMPS:C10:1,2015-11-01T19:05:00Z,27.1690,-82.9260,-1.0,27.055,2 
COMPS,ioos:station:USF.COMPS:C10:1,2015-11-01T19:35:00Z,27.1690,-82.9260,-1.0,27.072,2 
COMPS,ioos:station:USF.COMPS:C10:1,2015-11-01T20:05:00Z,27.1690,-82.9260,-1.0,27.121,2 
COMPS,ioos:station:USF.COMPS:C10:1,2015-11-01T20:35:00Z,27.1690,-82.9260,-1.0,27.12,2 
COMPS,ioos:station:USF.COMPS:C10:1,2015-11-01T21:05:00Z,27.1690,-82.9260,-1.0,27.115,2 
COMPS,ioos:station:USF.COMPS:C10:1,2015-11-01T21:35:00Z,27.1690,-82.9260,-1.0,27.133,2 
COMPS,ioos:station:USF.COMPS:C10:1,2015-11-01T22:05:00Z,27.1690,-82.9260,-1.0,27.129,2 
COMPS,ioos:station:USF.COMPS:C10:1,2015-11-01T22:35:00Z,27.1690,-82.9260,-1.0,27.118,2 
COMPS,ioos:station:USF.COMPS:C10:1,2015-11-01T23:05:00Z,27.1690,-82.9260,-1.0,27.107,2 
COMPS,ioos:station:USF.COMPS:C10:1,2015-11-01T23:35:00Z,27.1690,-82.9260,-1.0,27.066,2 
COMPS,ioos:station:USF.COMPS:C10:1,2015-11-02T00:05:00Z,27.1690,-82.9260,-1.0,27.073,2 
COMPS,ioos:station:USF.COMPS:C10:1,2015-11-02T00:35:00Z,27.1690,-82.9260,-1.0,27.069,2 
COMPS,ioos:station:USF.COMPS:C10:1,2015-11-02T01:05:00Z,27.1690,-82.9260,-1.0,27.04,2 
COMPS,ioos:station:USF.COMPS:C10:1,2015-11-02T01:35:00Z,27.1690,-82.9260,-1.0,27.018,2 
COMPS,ioos:station:USF.COMPS:C10:1,2015-11-02T05:05:00Z,27.1690,-82.9260,-1.0,26.972,2 
COMPS,ioos:station:USF.COMPS:C10:1,2015-11-02T05:35:00Z,27.1690,-82.9260,-1.0,26.959,2 
COMPS,ioos:station:USF.COMPS:C10:1,2015-11-02T06:05:00Z,27.1690,-82.9260,-1.0,26.949,2 
COMPS,ioos:station:USF.COMPS:C10:1,2015-11-02T06:35:00Z,27.1690,-82.9260,-1.0,26.946,2 
COMPS,ioos:station:USF.COMPS:C10:1,2015-11-02T07:05:00Z,27.1690,-82.9260,-1.0,26.949,2 
COMPS,ioos:station:USF.COMPS:C10:1,2015-11-02T07:35:00Z,27.1690,-82.9260,-1.0,26.936,2 
COMPS,ioos:station:USF.COMPS:C10:1,2015-11-02T08:05:00Z,27.1690,-82.9260,-1.0,26.961,2 
COMPS,ioos:station:USF.COMPS:C10:1,2015-11-02T08:35:00Z,27.1690,-82.9260,-1.0,26.986,2 
COMPS,ioos:station:USF.COMPS:C10:1,2015-11-02T09:05:00Z,27.1690,-82.9260,-1.0,26.972,2 
COMPS,ioos:station:USF.COMPS:C10:1,2015-11-02T09:35:00Z,27.1690,-82.9260,-1.0,26.973,2 
COMPS,ioos:station:USF.COMPS:C10:1,2015-11-02T10:05:00Z,27.1690,-82.9260,-1.0,26.959,2 
COMPS,ioos:station:USF.COMPS:C10:1,2015-11-02T10:35:00Z,27.1690,-82.9260,-1.0,26.956,2 
COMPS,ioos:station:USF.COMPS:C10:1,2015-11-02T11:05:00Z,27.1690,-82.9260,-1.0,26.944,2 
COMPS,ioos:station:USF.COMPS:C10:1,2015-11-02T11:35:00Z,27.1690,-82.9260,-1.0,26.928,2 
COMPS,ioos:station:USF.COMPS:C10:1,2015-11-02T12:05:00Z,27.1690,-82.9260,-1.0,26.897,2 
COMPS,ioos:station:USF.COMPS:C10:1,2015-11-02T12:35:00Z,27.1690,-82.9260,-1.0,26.893,2 
COMPS,ioos:station:USF.COMPS:C10:1,2015-11-02T13:05:00Z,27.1690,-82.9260,-1.0,26.896,2 
COMPS,ioos:station:USF.COMPS:C10:1,2015-11-02T13:35:00Z,27.1690,-82.9260,-1.0,26.883,2 
COMPS,ioos:station:USF.COMPS:C10:1,2015-11-02T14:05:00Z,27.1690,-82.9260,-1.0,26.868,2 
COMPS,ioos:station:USF.COMPS:C10:1,2015-11-02T14:35:00Z,27.1690,-82.9260,-1.0,26.853,2 
COMPS,ioos:station:USF.COMPS:C10:1,2015-11-02T15:05:00Z,27.1690,-82.9260,-1.0,26.847,2 
COMPS,ioos:station:USF.COMPS:C10:1,2015-11-02T15:35:00Z,27.1690,-82.9260,-1.0,26.86,2 
COMPS,ioos:station:USF.COMPS:C10:1,2015-11-02T16:05:00Z,27.1690,-82.9260,-1.0,26.874,2 
COMPS,ioos:station:USF.COMPS:C10:1,2015-11-02T16:35:00Z,27.1690,-82.9260,-1.0,26.937,2 
COMPS,ioos:station:USF.COMPS:C10:1,2015-11-02T17:05:00Z,27.1690,-82.9260,-1.0,26.917,2 
COMPS,ioos:station:USF.COMPS:C10:1,2015-11-02T17:35:00Z,27.1690,-82.9260,-1.0,26.964,2 
COMPS,ioos:station:USF.COMPS:C10:1,2015-11-02T18:05:00Z,27.1690,-82.9260,-1.0,27.026,2 
COMPS,ioos:station:USF.COMPS:C10:1,2015-11-02T18:35:00Z,27.1690,-82.9260,-1.0,27.057,2 
COMPS,ioos:station:USF.COMPS:C10:1,2015-11-02T19:05:00Z,27.1690,-82.9260,-1.0,27.064,2 
COMPS,ioos:station:USF.COMPS:C10:1,2015-11-02T19:35:00Z,27.1690,-82.9260,-1.0,27.119,2 
COMPS,ioos:station:USF.COMPS:C10:1,2015-11-02T20:05:00Z,27.1690,-82.9260,-1.0,27.148,2 
COMPS,ioos:station:USF.COMPS:C10:1,2015-11-02T20:35:00Z,27.1690,-82.9260,-1.0,27.125,2 
COMPS,ioos:station:USF.COMPS:C10:1,2015-11-02T21:05:00Z,27.1690,-82.9260,-1.0,27.128,2 
COMPS,ioos:station:USF.COMPS:C10:1,2015-11-02T21:35:00Z,27.1690,-82.9260,-1.0,27.162,2 
COMPS,ioos:station:USF.COMPS:C10:1,2015-11-02T22:05:00Z,27.1690,-82.9260,-1.0,27.12,2 
COMPS,ioos:station:USF.COMPS:C10:1,2015-11-02T22:35:00Z,27.1690,-82.9260,-1.0,27.136,2 
COMPS,ioos:station:USF.COMPS:C10:1,2015-11-02T23:05:00Z,27.1690,-82.9260,-1.0,27.16,2 
COMPS,ioos:station:USF.COMPS:C10:1,2015-11-02T23:35:00Z,27.1690,-82.9260,-1.0,27.144,2 
COMPS,ioos:station:USF.COMPS:C10:1,2015-11-03T00:05:00Z,27.1690,-82.9260,-1.0,27.127,2 
COMPS,ioos:station:USF.COMPS:C10:1,2015-11-03T00:35:00Z,27.1690,-82.9260,-1.0,27.126,2 
COMPS,ioos:station:USF.COMPS:C10:1,2015-11-03T01:05:00Z,27.1690,-82.9260,-1.0,27.134,2 
COMPS,ioos:station:USF.COMPS:C10:1,2015-11-03T01:35:00Z,27.1690,-82.9260,-1.0,27.119,2 
COMPS,ioos:station:USF.COMPS:C10:1,2015-11-03T05:05:00Z,27.1690,-82.9260,-1.0,27.109,2 
COMPS,ioos:station:USF.COMPS:C10:1,2015-11-03T05:35:00Z,27.1690,-82.9260,-1.0,27.113,2 
COMPS,ioos:station:USF.COMPS:C10:1,2015-11-03T06:05:00Z,27.1690,-82.9260,-1.0,27.375,2 
COMPS,ioos:station:USF.COMPS:C10:1,2015-11-03T06:35:00Z,27.1690,-82.9260,-1.0,27.382,2 
COMPS,ioos:station:USF.COMPS:C10:1,2015-11-03T07:05:00Z,27.1690,-82.9260,-1.0,27.368,2 
COMPS,ioos:station:USF.COMPS:C10:1,2015-11-03T07:35:00Z,27.1690,-82.9260,-1.0,27.347,2 
COMPS,ioos:station:USF.COMPS:C10:1,2015-11-03T08:05:00Z,27.1690,-82.9260,-1.0,27.321,2 
COMPS,ioos:station:USF.COMPS:C10:1,2015-11-03T08:35:00Z,27.1690,-82.9260,-1.0,27.304,2 
COMPS,ioos:station:USF.COMPS:C10:1,2015-11-03T09:05:00Z,27.1690,-82.9260,-1.0,27.272,2 
COMPS,ioos:station:USF.COMPS:C10:1,2015-11-03T09:35:00Z,27.1690,-82.9260,-1.0,27.259,2 
COMPS,ioos:station:USF.COMPS:C10:1,2015-11-03T10:05:00Z,27.1690,-82.9260,-1.0,27.248,2 
COMPS,ioos:station:USF.COMPS:C10:1,2015-11-03T10:35:00Z,27.1690,-82.9260,-1.0,27.299,2 
COMPS,ioos:station:USF.COMPS:C10:1,2015-11-03T11:05:00Z,27.1690,-82.9260,-1.0,27.28,2 
COMPS,ioos:station:USF.COMPS:C10:1,2015-11-03T11:35:00Z,27.1690,-82.9260,-1.0,27.267,2 
COMPS,ioos:station:USF.COMPS:C10:1,2015-11-03T12:05:00Z,27.1690,-82.9260,-1.0,27.268,2 
COMPS,ioos:station:USF.COMPS:C10:1,2015-11-03T12:35:00Z,27.1690,-82.9260,-1.0,27.234,2 
COMPS,ioos:station:USF.COMPS:C10:1,2015-11-03T13:05:00Z,27.1690,-82.9260,-1.0,27.219,2 
COMPS,ioos:station:USF.COMPS:C10:1,2015-11-03T13:35:00Z,27.1690,-82.9260,-1.0,27.199,2 
COMPS,ioos:station:USF.COMPS:C10:1,2015-11-03T14:05:00Z,27.1690,-82.9260,-1.0,27.186,2 
COMPS,ioos:station:USF.COMPS:C10:1,2015-11-03T14:35:00Z,27.1690,-82.9260,-1.0,27.181,2 
COMPS,ioos:station:USF.COMPS:C10:1,2015-11-03T15:05:00Z,27.1690,-82.9260,-1.0,27.216,2 
COMPS,ioos:station:USF.COMPS:C10:1,2015-11-03T15:35:00Z,27.1690,-82.9260,-1.0,27.283,2 
COMPS,ioos:station:USF.COMPS:C10:1,2015-11-03T16:05:00Z,27.1690,-82.9260,-1.0,27.233,2 
COMPS,ioos:station:USF.COMPS:C10:1,2015-11-03T16:35:00Z,27.1690,-82.9260,-1.0,27.216,2 
COMPS,ioos:station:USF.COMPS:C10:1,2015-11-03T17:05:00Z,27.1690,-82.9260,-1.0,27.282,2 
COMPS,ioos:station:USF.COMPS:C10:1,2015-11-03T17:35:00Z,27.1690,-82.9260,-1.0,27.34,2 
COMPS,ioos:station:USF.COMPS:C10:1,2015-11-03T18:05:00Z,27.1690,-82.9260,-1.0,27.326,2 
COMPS,ioos:station:USF.COMPS:C10:1,2015-11-03T18:35:00Z,27.1690,-82.9260,-1.0,27.42,2 
COMPS,ioos:station:USF.COMPS:C10:1,2015-11-03T19:05:00Z,27.1690,-82.9260,-1.0,27.515,2 
COMPS,ioos:station:USF.COMPS:C10:1,2015-11-03T19:35:00Z,27.1690,-82.9260,-1.0,27.474,2 
COMPS,ioos:station:USF.COMPS:C10:1,2015-11-03T20:05:00Z,27.1690,-82.9260,-1.0,27.578,2 
COMPS,ioos:station:USF.COMPS:C10:1,2015-11-03T20:35:00Z,27.1690,-82.9260,-1.0,27.702,2 
COMPS,ioos:station:USF.COMPS:C10:1,2015-11-03T21:05:00Z,27.1690,-82.9260,-1.0,27.703,2 
COMPS,ioos:station:USF.COMPS:C10:1,2015-11-03T21:35:00Z,27.1690,-82.9260,-1.0,27.643,2 
COMPS,ioos:station:USF.COMPS:C10:1,2015-11-03T22:05:00Z,27.1690,-82.9260,-1.0,27.658,2 
COMPS,ioos:station:USF.COMPS:C10:1,2015-11-03T22:35:00Z,27.1690,-82.9260,-1.0,27.572,2 
COMPS,ioos:station:USF.COMPS:C10:1,2015-11-03T23:05:00Z,27.1690,-82.9260,-1.0,27.537,2 
COMPS,ioos:station:USF.COMPS:C10:1,2015-11-03T23:35:00Z,27.1690,-82.9260,-1.0,27.574,2 
COMPS,ioos:station:USF.COMPS:C10:1,2015-11-04T00:05:00Z,27.1690,-82.9260,-1.0,27.625,2 
COMPS,ioos:station:USF.COMPS:C10:1,2015-11-04T00:35:00Z,27.1690,-82.9260,-1.0,27.592,2 
COMPS,ioos:station:USF.COMPS:C10:1,2015-11-04T01:05:00Z,27.1690,-82.9260,-1.0,27.557,2 
COMPS,ioos:station:USF.COMPS:C10:1,2015-11-04T01:35:00Z,27.1690,-82.9260,-1.0,27.565,2 
COMPS,ioos:station:USF.COMPS:C10:1,2015-11-04T03:05:00Z,27.1690,-82.9260,-1.0,27.487,2 
COMPS,ioos:station:USF.COMPS:C10:1,2015-11-04T03:35:00Z,27.1690,-82.9260,-1.0,27.514,2 
COMPS,ioos:station:USF.COMPS:C10:1,2015-11-04T05:05:00Z,27.1690,-82.9260,-1.0,27.456,2 
COMPS,ioos:station:USF.COMPS:C10:1,2015-11-04T05:35:00Z,27.1690,-82.9260,-1.0,27.43,2 
COMPS,ioos:station:USF.COMPS:C10:1,2015-11-04T06:05:00Z,27.1690,-82.9260,-1.0,27.407,2 
COMPS,ioos:station:USF.COMPS:C10:1,2015-11-04T06:35:00Z,27.1690,-82.9260,-1.0,27.375,2 
COMPS,ioos:station:USF.COMPS:C10:1,2015-11-04T07:05:00Z,27.1690,-82.9260,-1.0,27.308,2 
COMPS,ioos:station:USF.COMPS:C10:1,2015-11-04T07:35:00Z,27.1690,-82.9260,-1.0,27.259,2 
COMPS,ioos:station:USF.COMPS:C10:1,2015-11-04T08:05:00Z,27.1690,-82.9260,-1.0,27.234,2 
COMPS,ioos:station:USF.COMPS:C10:1,2015-11-04T08:35:00Z,27.1690,-82.9260,-1.0,27.213,2 
COMPS,ioos:station:USF.COMPS:C10:1,2015-11-04T09:05:00Z,27.1690,-82.9260,-1.0,27.189,2 
COMPS,ioos:station:USF.COMPS:C10:1,2015-11-04T09:35:00Z,27.1690,-82.9260,-1.0,27.183,2 
COMPS,ioos:station:USF.COMPS:C10:1,2015-11-04T10:05:00Z,27.1690,-82.9260,-1.0,27.179,2 
COMPS,ioos:station:USF.COMPS:C10:1,2015-11-04T10:35:00Z,27.1690,-82.9260,-1.0,27.18,2 
COMPS,ioos:station:USF.COMPS:C10:1,2015-11-04T11:05:00Z,27.1690,-82.9260,-1.0,27.167,2 
COMPS,ioos:station:USF.COMPS:C10:1,2015-11-04T11:35:00Z,27.1690,-82.9260,-1.0,27.144,2 
COMPS,ioos:station:USF.COMPS:C10:1,2015-11-04T12:05:00Z,27.1690,-82.9260,-1.0,27.134,2 
COMPS,ioos:station:USF.COMPS:C10:1,2015-11-04T12:35:00Z,27.1690,-82.9260,-1.0,27.125,2 
COMPS,ioos:station:USF.COMPS:C10:1,2015-11-04T13:05:00Z,27.1690,-82.9260,-1.0,27.122,2 
COMPS,ioos:station:USF.COMPS:C10:1,2015-11-04T13:35:00Z,27.1690,-82.9260,-1.0,27.118,2 
COMPS,ioos:station:USF.COMPS:C10:1,2015-11-04T14:05:00Z,27.1690,-82.9260,-1.0,27.113,2 
COMPS,ioos:station:USF.COMPS:C10:1,2015-11-04T14:35:00Z,27.1690,-82.9260,-1.0,27.105,2 
COMPS,ioos:station:USF.COMPS:C10:1,2015-11-04T15:05:00Z,27.1690,-82.9260,-1.0,27.101,2 
COMPS,ioos:station:USF.COMPS:C10:1,2015-11-04T15:35:00Z,27.1690,-82.9260,-1.0,27.076,2 
COMPS,ioos:station:USF.COMPS:C10:1,2015-11-04T16:05:00Z,27.1690,-82.9260,-1.0,27.073,2 
COMPS,ioos:station:USF.COMPS:C10:1,2015-11-04T16:35:00Z,27.1690,-82.9260,-1.0,27.073,2 
COMPS,ioos:station:USF.COMPS:C10:1,2015-11-04T17:05:00Z,27.1690,-82.9260,-1.0,27.101,2 
COMPS,ioos:station:USF.COMPS:C10:1,2015-11-04T17:35:00Z,27.1690,-82.9260,-1.0,27.135,2 
COMPS,ioos:station:USF.COMPS:C10:1,2015-11-04T18:05:00Z,27.1690,-82.9260,-1.0,27.19,2 
COMPS,ioos:station:USF.COMPS:C10:1,2015-11-04T18:35:00Z,27.1690,-82.9260,-1.0,27.326,2 
COMPS,ioos:station:USF.COMPS:C10:1,2015-11-04T19:05:00Z,27.1690,-82.9260,-1.0,27.391,2 
COMPS,ioos:station:USF.COMPS:C10:1,2015-11-04T19:35:00Z,27.1690,-82.9260,-1.0,27.464,2 
COMPS,ioos:station:USF.COMPS:C10:1,2015-11-04T20:05:00Z,27.1690,-82.9260,-1.0,27.587,2 
COMPS,ioos:station:USF.COMPS:C10:1,2015-11-04T20:35:00Z,27.1690,-82.9260,-1.0,27.678,2 
COMPS,ioos:station:USF.COMPS:C10:1,2015-11-04T21:05:00Z,27.1690,-82.9260,-1.0,27.637,2 
COMPS,ioos:station:USF.COMPS:C10:1,2015-11-04T21:35:00Z,27.1690,-82.9260,-1.0,27.67,2 
COMPS,ioos:station:USF.COMPS:C10:1,2015-11-04T22:05:00Z,27.1690,-82.9260,-1.0,27.786,2 
COMPS,ioos:station:USF.COMPS:C10:1,2015-11-04T22:35:00Z,27.1690,-82.9260,-1.0,27.849,2 
COMPS,ioos:station:USF.COMPS:C10:1,2015-11-04T23:05:00Z,27.1690,-82.9260,-1.0,27.782,2 
COMPS,ioos:station:USF.COMPS:C10:1,2015-11-04T23:35:00Z,27.1690,-82.9260,-1.0,27.71,2 
COMPS,ioos:station:USF.COMPS:C10:1,2015-11-05T00:05:00Z,27.1690,-82.9260,-1.0,27.6,2 
COMPS,ioos:station:USF.COMPS:C10:1,2015-11-05T00:35:00Z,27.1690,-82.9260,-1.0,27.496,2 
COMPS,ioos:station:USF.COMPS:C10:1,2015-11-05T01:05:00Z,27.1690,-82.9260,-1.0,27.43,2 
COMPS,ioos:station:USF.COMPS:C10:1,2015-11-05T01:35:00Z,27.1690,-82.9260,-1.0,27.378,2 
COMPS,ioos:station:USF.COMPS:C10:1,2015-11-05T03:05:00Z,27.1690,-82.9260,-1.0,27.295,2 
COMPS,ioos:station:USF.COMPS:C10:1,2015-11-05T03:35:00Z,27.1690,-82.9260,-1.0,27.278,2 
COMPS,ioos:station:USF.COMPS:C10:1,2015-11-05T05:05:00Z,27.1690,-82.9260,-1.0,27.185,2 
COMPS,ioos:station:USF.COMPS:C10:1,2015-11-05T05:35:00Z,27.1690,-82.9260,-1.0,27.166,2 
COMPS,ioos:station:USF.COMPS:C10:1,2015-11-05T06:05:00Z,27.1690,-82.9260,-1.0,27.138,2 
COMPS,ioos:station:USF.COMPS:C10:1,2015-11-05T06:35:00Z,27.1690,-82.9260,-1.0,27.11,2 
COMPS,ioos:station:USF.COMPS:C10:1,2015-11-05T07:05:00Z,27.1690,-82.9260,-1.0,27.086,2 
COMPS,ioos:station:USF.COMPS:C10:1,2015-11-05T07:35:00Z,27.1690,-82.9260,-1.0,27.073,2 
COMPS,ioos:station:USF.COMPS:C10:1,2015-11-05T08:05:00Z,27.1690,-82.9260,-1.0,27.049,2 
COMPS,ioos:station:USF.COMPS:C10:1,2015-11-05T08:35:00Z,27.1690,-82.9260,-1.0,27.041,2 
COMPS,ioos:station:USF.COMPS:C10:1,2015-11-05T09:05:00Z,27.1690,-82.9260,-1.0,27.045,2 
COMPS,ioos:station:USF.COMPS:C10:1,2015-11-05T09:35:00Z,27.1690,-82.9260,-1.0,27.036,2 
COMPS,ioos:station:USF.COMPS:C10:1,2015-11-05T10:05:00Z,27.1690,-82.9260,-1.0,27.032,2 
COMPS,ioos:station:USF.COMPS:C10:1,2015-11-05T10:35:00Z,27.1690,-82.9260,-1.0,27.049,2 
COMPS,ioos:station:USF.COMPS:C10:1,2015-11-05T11:05:00Z,27.1690,-82.9260,-1.0,27.037,2 
COMPS,ioos:station:USF.COMPS:C10:1,2015-11-05T11:35:00Z,27.1690,-82.9260,-1.0,27.025,2 
COMPS,ioos:station:USF.COMPS:C10:1,2015-11-05T12:05:00Z,27.1690,-82.9260,-1.0,27.037,2 
COMPS,ioos:station:USF.COMPS:C10:1,2015-11-05T12:35:00Z,27.1690,-82.9260,-1.0,27.029,2 
COMPS,ioos:station:USF.COMPS:C10:1,2015-11-05T13:05:00Z,27.1690,-82.9260,-1.0,27.031,2 
COMPS,ioos:station:USF.COMPS:C10:1,2015-11-05T13:35:00Z,27.1690,-82.9260,-1.0,27.043,2 
COMPS,ioos:station:USF.COMPS:C10:1,2015-11-05T14:05:00Z,27.1690,-82.9260,-1.0,27.04,2 
COMPS,ioos:station:USF.COMPS:C10:1,2015-11-05T14:35:00Z,27.1690,-82.9260,-1.0,27.028,2 
COMPS,ioos:station:USF.COMPS:C10:1,2015-11-05T15:05:00Z,27.1690,-82.9260,-1.0,27.029,2 
COMPS,ioos:station:USF.COMPS:C10:1,2015-11-05T15:35:00Z,27.1690,-82.9260,-1.0,27.04,2 
COMPS,ioos:station:USF.COMPS:C10:1,2015-11-05T16:05:00Z,27.1690,-82.9260,-1.0,27.044,2 
COMPS,ioos:station:USF.COMPS:C10:1,2015-11-05T16:35:00Z,27.1690,-82.9260,-1.0,27.063,2 
COMPS,ioos:station:USF.COMPS:C10:1,2015-11-05T18:05:00Z,27.1690,-82.9260,-1.0,27.186,2 
COMPS,ioos:station:USF.COMPS:C10:1,2015-11-05T18:35:00Z,27.1690,-82.9260,-1.0,27.238,2 
COMPS,ioos:station:USF.COMPS:C10:1,2015-11-05T19:05:00Z,27.1690,-82.9260,-1.0,27.302,2 
COMPS,ioos:station:USF.COMPS:C10:1,2015-11-05T19:35:00Z,27.1690,-82.9260,-1.0,27.422,2 
COMPS,ioos:station:USF.COMPS:C10:1,2015-11-05T20:05:00Z,27.1690,-82.9260,-1.0,27.435,2 
COMPS,ioos:station:USF.COMPS:C10:1,2015-11-05T20:35:00Z,27.1690,-82.9260,-1.0,27.622,2 
COMPS,ioos:station:USF.COMPS:C10:1,2015-11-05T21:05:00Z,27.1690,-82.9260,-1.0,27.767,2 
COMPS,ioos:station:USF.COMPS:C10:1,2015-11-05T21:35:00Z,27.1690,-82.9260,-1.0,27.618,2 
COMPS,ioos:station:USF.COMPS:C10:1,2015-11-05T22:05:00Z,27.1690,-82.9260,-1.0,27.742,2 
COMPS,ioos:station:USF.COMPS:C10:1,2015-11-05T22:35:00Z,27.1690,-82.9260,-1.0,27.658,2 
COMPS,ioos:station:USF.COMPS:C10:1,2015-11-05T23:05:00Z,27.1690,-82.9260,-1.0,27.645,2 
COMPS,ioos:station:USF.COMPS:C10:1,2015-11-05T23:35:00Z,27.1690,-82.9260,-1.0,27.584,2 
COMPS,ioos:station:USF.COMPS:C10:1,2015-11-06T00:05:00Z,27.1690,-82.9260,-1.0,27.537,2 
COMPS,ioos:station:USF.COMPS:C10:1,2015-11-06T00:35:00Z,27.1690,-82.9260,-1.0,27.474,2 
COMPS,ioos:station:USF.COMPS:C10:1,2015-11-06T01:05:00Z,27.1690,-82.9260,-1.0,27.418,2 
COMPS,ioos:station:USF.COMPS:C10:1,2015-11-06T01:35:00Z,27.1690,-82.9260,-1.0,27.393,2 
COMPS,ioos:station:USF.COMPS:C10:1,2015-11-06T05:05:00Z,27.1690,-82.9260,-1.0,27.204,2 
COMPS,ioos:station:USF.COMPS:C10:1,2015-11-06T05:35:00Z,27.1690,-82.9260,-1.0,27.18,2 
COMPS,ioos:station:USF.COMPS:C10:1,2015-11-06T06:05:00Z,27.1690,-82.9260,-1.0,27.148,2 
COMPS,ioos:station:USF.COMPS:C10:1,2015-11-06T06:35:00Z,27.1690,-82.9260,-1.0,27.133,2 
COMPS,ioos:station:USF.COMPS:C10:1,2015-11-06T07:05:00Z,27.1690,-82.9260,-1.0,27.118,2 
COMPS,ioos:station:USF.COMPS:C10:1,2015-11-06T07:35:00Z,27.1690,-82.9260,-1.0,27.097,2 
COMPS,ioos:station:USF.COMPS:C10:1,2015-11-06T08:05:00Z,27.1690,-82.9260,-1.0,27.083,2 
COMPS,ioos:station:USF.COMPS:C10:1,2015-11-06T08:35:00Z,27.1690,-82.9260,-1.0,27.079,2 
COMPS,ioos:station:USF.COMPS:C10:1,2015-11-06T09:05:00Z,27.1690,-82.9260,-1.0,27.072,2 
COMPS,ioos:station:USF.COMPS:C10:1,2015-11-06T09:35:00Z,27.1690,-82.9260,-1.0,27.084,2 
COMPS,ioos:station:USF.COMPS:C10:1,2015-11-06T10:05:00Z,27.1690,-82.9260,-1.0,27.083,2 
COMPS,ioos:station:USF.COMPS:C10:1,2015-11-06T10:35:00Z,27.1690,-82.9260,-1.0,27.093,2 
COMPS,ioos:station:USF.COMPS:C10:1,2015-11-06T11:05:00Z,27.1690,-82.9260,-1.0,27.094,2 
COMPS,ioos:station:USF.COMPS:C10:1,2015-11-06T11:35:00Z,27.1690,-82.9260,-1.0,27.089,2 
COMPS,ioos:station:USF.COMPS:C10:1,2015-11-06T12:05:00Z,27.1690,-82.9260,-1.0,27.095,2 
COMPS,ioos:station:USF.COMPS:C10:1,2015-11-06T12:35:00Z,27.1690,-82.9260,-1.0,27.088,2 
COMPS,ioos:station:USF.COMPS:C10:1,2015-11-06T13:05:00Z,27.1690,-82.9260,-1.0,27.091,2 
COMPS,ioos:station:USF.COMPS:C10:1,2015-11-06T13:35:00Z,27.1690,-82.9260,-1.0,27.106,2 
COMPS,ioos:station:USF.COMPS:C10:1,2015-11-06T14:05:00Z,27.1690,-82.9260,-1.0,27.11,2 
COMPS,ioos:station:USF.COMPS:C10:1,2015-11-06T14:35:00Z,27.1690,-82.9260,-1.0,27.121,2 
COMPS,ioos:station:USF.COMPS:C10:1,2015-11-06T15:05:00Z,27.1690,-82.9260,-1.0,27.13,2 
COMPS,ioos:station:USF.COMPS:C10:1,2015-11-06T15:35:00Z,27.1690,-82.9260,-1.0,27.139,2 
COMPS,ioos:station:USF.COMPS:C10:1,2015-11-06T16:05:00Z,27.1690,-82.9260,-1.0,27.147,2 
COMPS,ioos:station:USF.COMPS:C10:1,2015-11-06T16:35:00Z,27.1690,-82.9260,-1.0,27.174,2 
COMPS,ioos:station:USF.COMPS:C10:1,2015-11-06T17:05:00Z,27.1690,-82.9260,-1.0,27.209,2 
COMPS,ioos:station:USF.COMPS:C10:1,2015-11-06T17:35:00Z,27.1690,-82.9260,-1.0,27.242,2 
COMPS,ioos:station:USF.COMPS:C10:1,2015-11-06T18:05:00Z,27.1690,-82.9260,-1.0,27.254,2 
COMPS,ioos:station:USF.COMPS:C10:1,2015-11-06T18:35:00Z,27.1690,-82.9260,-1.0,27.343,2 
COMPS,ioos:station:USF.COMPS:C10:1,2015-11-06T19:05:00Z,27.1690,-82.9260,-1.0,27.468,2 
COMPS,ioos:station:USF.COMPS:C10:1,2015-11-06T19:35:00Z,27.1690,-82.9260,-1.0,27.535,2 
COMPS,ioos:station:USF.COMPS:C10:1,2015-11-06T20:05:00Z,27.1690,-82.9260,-1.0,27.686,2 
COMPS,ioos:station:USF.COMPS:C10:1,2015-11-06T20:35:00Z,27.1690,-82.9260,-1.0,27.692,2 
COMPS,ioos:station:USF.COMPS:C10:1,2015-11-06T21:05:00Z,27.1690,-82.9260,-1.0,27.73,2 
COMPS,ioos:station:USF.COMPS:C10:1,2015-11-06T21:35:00Z,27.1690,-82.9260,-1.0,27.762,2 
COMPS,ioos:station:USF.COMPS:C10:1,2015-11-06T22:05:00Z,27.1690,-82.9260,-1.0,27.771,2 
COMPS,ioos:station:USF.COMPS:C10:1,2015-11-06T22:35:00Z,27.1690,-82.9260,-1.0,27.622,2 
COMPS,ioos:station:USF.COMPS:C10:1,2015-11-06T23:05:00Z,27.1690,-82.9260,-1.0,27.589,2 
COMPS,ioos:station:USF.COMPS:C10:1,2015-11-06T23:35:00Z,27.1690,-82.9260,-1.0,27.52,2 
COMPS,ioos:station:USF.COMPS:C10:1,2015-11-07T05:05:00Z,27.1690,-82.9260,-1.0,27.343,2 
COMPS,ioos:station:USF.COMPS:C10:1,2015-11-07T05:35:00Z,27.1690,-82.9260,-1.0,27.306,2 
COMPS,ioos:station:USF.COMPS:C10:1,2015-11-07T06:05:00Z,27.1690,-82.9260,-1.0,27.279,2 
COMPS,ioos:station:USF.COMPS:C10:1,2015-11-07T06:35:00Z,27.1690,-82.9260,-1.0,27.235,2 
COMPS,ioos:station:USF.COMPS:C10:1,2015-11-07T07:05:00Z,27.1690,-82.9260,-1.0,27.225,2 
COMPS,ioos:station:USF.COMPS:C10:1,2015-11-07T07:35:00Z,27.1690,-82.9260,-1.0,27.202,2 
COMPS,ioos:station:USF.COMPS:C10:1,2015-11-07T08:05:00Z,27.1690,-82.9260,-1.0,27.191,2 
COMPS,ioos:station:USF.COMPS:C10:1,2015-11-07T08:35:00Z,27.1690,-82.9260,-1.0,27.169,2 
COMPS,ioos:station:USF.COMPS:C10:1,2015-11-07T09:05:00Z,27.1690,-82.9260,-1.0,27.167,2 
COMPS,ioos:station:USF.COMPS:C10:1,2015-11-07T09:35:00Z,27.1690,-82.9260,-1.0,27.184,2 
COMPS,ioos:station:USF.COMPS:C10:1,2015-11-07T10:05:00Z,27.1690,-82.9260,-1.0,27.164,2 
COMPS,ioos:station:USF.COMPS:C10:1,2015-11-07T10:35:00Z,27.1690,-82.9260,-1.0,27.162,2 
COMPS,ioos:station:USF.COMPS:C10:1,2015-11-07T12:05:00Z,27.1690,-82.9260,-1.0,27.206,2 
COMPS,ioos:station:USF.COMPS:C10:1,2015-11-07T12:35:00Z,27.1690,-82.9260,-1.0,27.209,2 
COMPS,ioos:station:USF.COMPS:C10:1,2015-11-07T13:05:00Z,27.1690,-82.9260,-1.0,27.225,2 
COMPS,ioos:station:USF.COMPS:C10:1,2015-11-07T13:35:00Z,27.1690,-82.9260,-1.0,27.241,2 
COMPS,ioos:station:USF.COMPS:C10:1,2015-11-07T14:05:00Z,27.1690,-82.9260,-1.0,27.244,2 
COMPS,ioos:station:USF.COMPS:C10:1,2015-11-07T14:35:00Z,27.1690,-82.9260,-1.0,27.253,2 
COMPS,ioos:station:USF.COMPS:C10:1,2015-11-07T15:05:00Z,27.1690,-82.9260,-1.0,27.27,2 
COMPS,ioos:station:USF.COMPS:C10:1,2015-11-07T15:35:00Z,27.1690,-82.9260,-1.0,27.269,2 